User: anonymous   Login
Location: Goleszów
(49.7327°N, 18.7414°E)
Time: 13:01:30
(UTC+02:00)
Language:

Envisat - Orbit

View from above orbital plane
View from above orbital plane
View from above satellite
View from above satellite

Ground track
Ground track

The orbit data is extracted from the following two-line orbital elements,

1 27386U 02009A   19168.06801302 -.00000001  00000-0  13044-4 0  9990
2 27386  98.1490 189.1779 0001275  94.0278 325.6038 14.37950789905965
Epoch (UTC): 17 June 2019 01:37:56
Eccentricity: 0.0001275
inclination: 98.1490°
perigee height: 764 km
apogee height: 766 km
right ascension of ascending node: 189.1779°
argument of perigee: 94.0278°
revolutions per day: 14.37950789
mean anomaly at epoch: 325.6038°
orbit number at epoch: 90596

The dashed part of the orbit path shows where the satellite is in the earth's shadow,  

DLR